Location: Unspecified
(49.2170°N, 0.0000°E)
Time: 04:02:01
(UTC+00:00)

Transit 2A - Pass Details

Date: 17 June 2019
Orbit: 594 x 965 km, 66.7° (Epoch: 17 July)

Event Time Altitude Azimuth Distance (km) Brightness Sun altitude
Rises 11:59:36 0° 308° (NW) 3,417 9.2 64.2°
Reaches altitude 10° 12:04:39 10° 270° (W) 2,358 8.7 64.2°
Maximum altitude 12:05:30 10° 261° (W) 2,310 8.7 64.1°
Drops below altitude 10° 12:06:21 10° 252° (WSW) 2,314 8.8 64.1°
Sets 12:11:00 0° 212° (SSW) 3,113 9.5 64.1°
